Location: Brompton
(51.4000°N, 0.5333°E)
Time: 09:38:48
(UTC+00:00)

Landsat 7 - Pass Details

Date: 11 May 2021
Orbit: 701 x 703 km, 98.0° (Epoch: 12 June)

Event Time Altitude Azimuth Distance (km) Brightness Sun altitude
Exits shadow 20:22:52 - 158° (SSE) 2,634 6.2 -6.6°
Reaches altitude 10° 20:24:01 10° 158° (SSE) 2,168 5.8 -6.8°
Maximum altitude 20:28:46 76° 74° (ENE) 731 3.9 -7.3°
Drops below altitude 10° 20:33:33 10° 348° (NNW) 2,184 7.3 -7.9°
Sets 20:35:49 0° 347° (NNW) 3,106 8.2 -8.1°
